Location: Avully
(45.9633°N, 6.0228°E)
Time: 02:13:51
(UTC+00:00)

Daily predictions for brighter satellites

Satellite Brightness Start Highest point End
(mag) Time Altitude Azimuth Time Altitude Azimuth Time Altitude Azimuth
Cosmos 2228 Rocket 3.0 00:05:20 68° SE 00:05:41 73° E 00:10:10 10° NNE
Cosmos 2082 Rocket 2.4 00:07:01 48° SSE 00:08:15 59° ESE 00:13:53 10° NNE
Helios 1A Rocket 3.8 00:07:43 35° E 00:08:25 38° ENE 00:12:01 10° N
Meteor 1-12 Rocket 4.3 00:04:07 10° NNW 00:10:02 84° W 00:11:47 49° S
Cosmos 1833 Rocket 3.5 00:08:10 28° WSW 00:10:36 44° WNW 00:15:59 10° NNE
BREEZE-M DEB (TANK) 2.9 00:13:11 76° SW 00:13:15 76° SSW 00:21:00 10° ESE
Cosmos 724 4.3 00:12:02 42° SW 00:14:08 75° NW 00:20:00 10° NNE
CZ-2D R/B 4.3 00:15:18 10° NE 00:18:31 16° E 00:21:24 11° ESE
DELTA 2 R/B (1) 4.2 00:26:16 36° SE 00:26:16 36° SE 00:30:15 10° ESE
USA 267 3.5 00:18:41 10° NE 00:25:10 67° NNW 00:30:21 17° WSW
ATLAS CENTAUR R/B 4.4 00:12:00 10° NW 00:25:23 62° SW 00:31:03 28° SSE
Cosmos 1455 3.6 00:27:37 10° NNE 00:30:34 26° ENE 00:31:18 24° E
Cosmos 1733 Rocket 2.9 00:27:17 10° NNW 00:31:35 69° W 00:31:54 66° SW
Cosmos 1400 Rocket 3.0 00:32:16 55° W 00:32:23 55° WNW 00:36:20 10° N
Resurs 1-4 Rocket 3.9 00:29:27 10° NE 00:33:24 21° E 00:36:00 15° SE
Nimbus 7 Rocket 4.4 00:28:31 10° NNE 00:34:33 89° ESE 00:36:43 43° SSW
GP-B 4.1 00:30:36 10° NNW 00:34:34 33° W 00:35:02 33° W
H-2A R/B 3.6 00:34:08 10° N 00:37:50 26° WNW 00:38:59 23° W
Cosmos 381 Rocket 4.4 00:32:54 10° NNW 00:39:19 76° WSW 00:41:55 38° S
Cosmos 2278 4.4 00:36:10 10° NNW 00:41:47 53° ENE 00:46:48 13° SE
NOSS 3-4 (A) 4.0 00:36:38 10° NW 00:43:29 58° WSW 00:47:10 32° S
NOSS 3-4 (C) 4.0 00:36:45 10° NW 00:43:35 58° WSW 00:47:19 31° S
Cosmos 676 Rocket 4.0 00:42:47 48° S 00:44:17 80° ESE 00:49:38 10° NNE
Cosmos 1346 Rocket 2.6 00:41:19 10° NNW 00:45:12 76° W 00:45:17 75° WSW
Cosmos 2251 Rocket 4.4 00:44:26 29° WSW 00:46:23 39° WNW 00:51:21 10° N
SL-08 R/B 4.4 00:44:05 39° S 00:46:34 83° E 00:52:45 10° N
Cosmos 468 Rocket 3.9 00:42:57 10° NNW 00:48:15 73° WSW 00:49:48 46° S
Okean 2 3.3 00:49:49 59° SE 00:50:19 68° E 00:54:17 10° NNE
Cosmos 1954 Rocket 4.0 00:48:42 46° SW 00:50:19 77° WNW 00:55:40 10° NNE
Cosmos 1745 Rocket 4.4 00:48:37 29° SSE 00:51:41 57° E 00:57:48 10° NNE
CZ-2C R/B 4.0 00:47:51 10° SE 00:52:27 34° ENE 00:57:06 10° N
Meteor 1-4 Rocket 3.1 00:53:08 41° ENE 00:53:08 41° ENE 00:55:36 10° NNE
Cosmos 1190 Rocket 4.4 00:51:10 38° WSW 00:52:55 55° WNW 00:58:08 10° NNE
Cosmos 2333 Rocket 4.3 00:49:30 10° N 00:54:18 27° NE 00:59:06 10° ESE
Cosmos 1763 Rocket 4.0 00:52:34 10° NW 00:57:31 41° WSW 00:58:19 38° SW
Cosmos 2322 Rocket 3.6 00:54:08 10° NNW 00:59:24 37° NE 01:04:38 10° ESE
Cosmos 1300 4.1 00:56:57 10° NNW 00:59:22 24° WNW 00:59:22 24° WNW
Cosmos 1703 Rocket 3.8 00:58:54 44° SSE 01:00:07 63° E 01:04:32 10° NNE
USA 234 3.3 00:56:31 20° SSE 01:01:02 55° SW 01:07:28 10° WNW
BREEZE-M R/B 4.3 00:59:28 30° SSE 01:01:13 37° SE 01:12:00 10° ENE
Cosmos 1953 2.1 01:00:44 10° N 01:04:40 89° E 01:05:20 60° S
Cosmos 1862 Rocket 4.3 01:04:13 34° W 01:04:58 37° WNW 01:09:01 10° N
SL-8 R/B 3.5 01:00:22 10° WNW 01:05:07 69° SSW 01:09:52 10° ESE
Cosmos 1697 Rocket 4.4 01:02:17 10° WNW 01:05:43 17° W 01:05:44 17° W
NPP 4.2 01:02:39 10° NNE 01:07:56 52° E 01:10:34 28° SSE
Aureole 3 4.3 01:09:14 24° WNW 01:09:14 24° WNW 01:11:21 10° NNW
Cosmos 1980 Rocket 3.0 01:08:16 10° NW 01:13:12 31° WSW 01:14:01 30° WSW
Cosmos 1242 Rocket 3.6 01:13:26 26° ESE 01:13:40 26° E 01:16:09 10° NE
Nadezhda 1 Rocket 4.0 01:08:07 10° N 01:14:34 87° W 01:18:17 27° S
Cosmos 540 Rocket 4.0 01:11:12 10° NW 01:15:57 38° WSW 01:16:52 35° SW
Cosmos 1300 Rocket 4.2 01:13:34 10° N 01:17:48 50° ENE 01:20:25 21° SE
MOZ.5/SAFIR/RUBIN 5/SL-8 3.7 01:18:21 39° S 01:20:01 68° WSW 01:24:45 10° NNW
ADEOS II 3.3 01:15:56 10° NNE 01:20:41 34° E 01:24:12 16° SSE
Cosmos 1408 3.8 01:21:24 23° ESE 01:22:08 26° E 01:24:41 10° NNE
COSMOS 2406 3.8 01:19:32 27° WSW 01:22:21 49° WNW 01:27:57 10° NNE
Cosmos 2369 4.5 01:19:16 10° NW 01:24:19 33° WSW 01:25:30 30° SW
Lacrosse 5 rocket 1.3 01:21:21 10° NW 01:25:27 77° NE 01:29:22 10° SE
IDEFIX/ARIANE 42P 2.6 01:20:33 10° NNE 01:25:50 75° ESE 01:28:28 30° S
EXPRESS MD2 3.2 01:27:55 42° SE 01:27:55 42° SE 01:31:19 10° ENE
ALOS 4.3 01:24:51 10° NE 01:28:20 21° E 01:31:47 10° SE
Okean 1-7 3.7 01:30:04 33° WSW 01:31:12 40° WNW 01:35:17 10° N
ATLAS 2AS CENTAUR R/B 4.1 01:34:10 10° NNW 01:40:38 40° NE 01:46:51 10° ESE
Cosmos 1315 Rocket 3.2 01:39:37 37° WSW 01:40:38 47° WNW 01:44:27 10° N
SJ 16-02 2.1 01:39:50 23° SSE 01:42:04 44° ESE 01:46:11 10° NNE
SL-16 R/B 2.1 01:38:19 10° NNW 01:43:59 71° WSW 01:49:03 13° SSE
CZ-2C R/B 3.6 01:38:33 10° NNE 01:44:21 63° E 01:48:26 19° S
Cosmos 1850 Rocket 4.0 01:46:14 29° SSW 01:49:01 75° WNW 01:54:18 10° NNE
Cosmos 2082 Rocket 3.7 01:48:50 14° W 01:52:43 27° NW 01:57:33 10° N
Cosmos 1709 Rocket 4.0 01:49:42 24° SSW 01:53:44 74° W 02:00:08 10° N
Cosmos 1741 Rocket 4.0 01:51:18 27° SW 01:54:08 72° WNW 01:59:25 10° NNE
SL-16 R/B 2.9 01:49:32 10° SSE 01:55:44 67° ENE 02:01:58 10° N
Cosmos 2219 Rocket 3.5 01:51:44 10° NNW 01:57:06 42° NE 02:02:26 10° SE
Cosmos 1782 Rocket 3.8 01:53:24 10° NNW 01:57:39 50° W 01:59:38 28° SSW
Cosmos 2181 Rocket 4.3 01:51:53 10° N 01:58:16 70° E 02:04:31 10° SSE
CZ-2D R/B 2.2 01:53:39 10° NNE 01:59:09 79° WNW 02:02:42 22° SSW
Cosmos 1703 3.4 02:00:01 23° S 02:02:13 66° E 02:05:57 10° NNE
Meteor 1-28 Rocket 3.3 01:59:46 13° SSE 02:02:51 67° ENE 02:06:25 10° N
Cosmos 1455 3.6 02:02:24 10° NW 02:04:53 19° W 02:05:04 19° W
Cosmos 968 Rocket 3.4 02:02:10 24° SSW 02:05:16 79° WNW 02:10:25 10° NNE
AQUA 4.0 02:00:37 10° NNE 02:05:21 67° ESE 02:08:56 17° S
Cosmos 2360 Rocket 2.2 02:00:22 10° NNW 02:06:05 87° ENE 02:11:46 10° SSE
Genesis I 2.9 02:05:37 31° SSW 02:07:10 81° SE 02:10:44 10° NE
CRYOSAT 2 4.3 02:02:27 10° N 02:07:21 76° W 02:10:47 20° SSW
Meteor 1-24 Rocket 4.1 02:02:47 14° S 02:07:58 71° E 02:13:58 10° NNE
RESURS DK-1 2.9 02:06:07 10° NNW 02:10:09 60° ENE 02:14:10 10° SE
DELTA 2 R/B (1) 4.0 02:06:59 16° WSW 02:10:56 40° S 02:16:04 10° ESE
MSX 4.1 02:06:27 10° N 02:12:04 56° WNW 02:16:00 20° SW
Resurs 1-4 Rocket 2.3 02:08:24 10° N 02:13:33 56° WNW 02:17:04 20° SW
SAR-Lupe-4 4.2 02:12:19 10° NNE 02:15:50 52° E 02:18:38 15° S
FENGYUN 3A 3.6 02:17:39 10° NNE 02:23:02 78° WNW 02:27:26 16° SSW
IRAS Rocket 4.4 02:18:08 10° NNE 02:23:39 70° ESE 02:28:54 11° S
CZ-2C R/B 3.3 02:29:15 16° SSW 02:32:42 34° W 02:37:23 10° NNW
Cosmos 2221 Rocket 4.1 02:28:45 10° S 02:33:13 63° E 02:37:43 10° NNE
Cosmos 2242 Rocket 4.4 02:30:51 18° SW 02:33:40 36° WNW 02:37:50 10° N
Cosmos 1825 3.0 02:33:45 10° SSE 02:37:00 43° E 02:40:16 10° NNE
SAR-Lupe-1 4.0 02:34:42 10° NNE 02:38:18 87° WNW 02:41:25 13° SSW
Cosmos 2333 Rocket 2.3 02:33:21 10° NNW 02:38:59 60° WSW 02:44:36 10° S
Sich 1 Rocket 3.7 02:34:29 10° N 02:39:00 85° ENE 02:43:28 10° S
Cosmos 2098 Rocket 3.9 02:34:20 10° NNW 02:39:25 56° W 02:45:22 10° S
Cosmos 2151 Rocket 3.6 02:37:02 10° N 02:41:32 83° W 02:45:58 10° S
SL-27 R/B 2.9 02:40:26 18° WSW 02:41:58 32° WNW 02:44:33 10° N
Cosmos 1814 Rocket 4.4 02:37:45 10° NNW 02:42:41 43° WSW 02:47:37 10° S
Cosmos 1892 2.9 02:39:37 10° S 02:43:05 63° E 02:46:34 10° NNE
Cosmos 2322 Rocket 2.7 02:38:14 10° NW 02:43:26 38° WSW 02:48:36 10° S
Cosmos 1242 Rocket 4.3 02:44:54 11° W 02:46:03 13° WNW 02:47:25 10° NW
Meteor 2-5 Rocket 4.1 02:43:00 12° SSW 02:48:24 58° WNW 02:54:17 10° N
SL-4 R/B 2.7 02:47:25 13° SSW 02:50:59 47° SE 02:55:17 10° ENE
Okean 2 Rocket 3.1 02:50:02 10° NNW 02:54:24 66° W 02:58:46 10° S
Cosmos 1408 4.3 02:53:36 11° WSW 02:55:04 14° WNW 02:56:42 10° NW
Cosmos 2074 Rocket 4.0 02:49:22 10° SSW 02:55:35 71° W 03:01:49 10° N
Cosmos 1674 Rocket 3.6 02:52:43 10° SSW 02:57:09 69° W 03:01:35 10° N
ADEOS II 2.9 02:55:33 10° N 03:00:17 35° WNW 03:05:00 10° SW
Cosmos 1570 Rocket 4.0 02:55:19 10° NNW 03:00:37 72° WSW 03:05:55 10° SSE
Tiangong -0.1 03:00:24 10° SSW 03:02:25 16° SSE 03:04:27 10° ESE
Lacrosse 5 rocket 2.7 03:00:48 10° W 03:03:17 16° WSW 03:05:41 10° SSW
Cosmos 2208 Rocket 4.0 02:58:28 10° NNW 03:03:48 88° WSW 03:09:00 10° SSE
IDEFIX/ARIANE 42P 4.4 03:01:19 10° NNW 03:04:45 18° WNW 03:08:10 10° W
ALOS 2.7 03:01:20 10° N 03:05:45 46° WNW 03:10:09 10° SW
METEOR-M 4.2 03:04:13 10° NNE 03:09:36 88° ESE 03:14:57 10° SSW
Cosmos 405 Rocket 3.0 03:10:12 10° NNW 03:13:38 43° W 03:17:05 10° SSW
Cosmos 2184 Rocket 4.3 03:07:45 10° SSW 03:13:50 55° WNW 03:20:01 10° N
Cosmos 1378 Rocket 4.2 03:10:27 10° SW 03:14:26 37° WNW 03:18:27 10° N
IRS-1D 4.1 03:11:36 10° NNE 03:16:54 62° ESE 03:22:08 10° S
CZ-2C R/B 2.5 03:13:31 10° NNE 03:18:18 76° ESE 03:22:56 10° S
Envisat 3.0 03:13:42 10° N 03:18:47 76° WNW 03:23:50 10° SSW
SJ 16-02 3.0 03:17:22 10° WSW 03:20:39 21° WNW 03:23:56 10° N
Okean 1 Rocket 3.2 03:16:42 10° NNW 03:20:56 54° W 03:25:08 10° S
